Weather History for Michigan City, IN

Change the Weather History Date:

Saturday, March 29, 2014

  Actual Average (KVPZ) Record (KVPZ)
Temperature  
Mean Temperature 32 °F 43 °F  
Max Temperature 35 °F 52 °F 82 °F (1986)
Min Temperature 30 °F 33 °F 13 °F (1915)
Degree Days  
Heating Degree Days 32 22  
Month to date heating degree days 801  
Since 1 July heating degree days 5533  
Cooling Degree Days 0 0  
Month to date cooling degree days 0  
Year to date cooling degree days 0  
Moisture  
Dew Point 29 °F    
Average Humidity 87    
Maximum Humidity 93    
Minimum Humidity 80    
Precipitation  
Precipitation 0.00 in 0.09 in 0.94 in (1973)
Month to date precipitation 2.30  
Year to date precipitation 5.47  
Sea Level Pressure  
Sea Level Pressure 30.18 in    
Wind  
Wind Speed 5 mph (North)    
Max Wind Speed 16 mph    
Max Gust Speed 24 mph    
Visibility 10 miles    
Events      
T = Trace of Precipitation, MM = Missing Value Source: NWS Daily Summary

Daily Weather History Graph

Daily Weather History Graph

Search for Another Location

Airport:

Trip Planner

Search our weather history database for the weather conditions in past years. The results will help you decide how hot, cold, wet, or windy it might be!

Date:

Astronomy

Mar. 29, 2014 Rise Set
Actual Time 6:35 AM CDT 7:09 PM CDT
Civil Twilight 6:07 AM CDT 7:37 PM CDT
Nautical Twilight 5:34 AM CDT 8:10 PM CDT
Astronomical Twilight 5:00 AM CDT 8:44 PM CDT
Moon 5:44 AM CDT (3/29) 6:13 PM CDT (3/29)
Length of Visible Light 13h 30m
Length of Day
12h 34m
Waning Crescent, 2% of the Moon is Illuminated
Mar 29
Waning Crescent
Mar 30
New
Apr 7
First Quarter
Apr 15
Full
Apr 22
Last Quarter

Hourly Weather History & Observations

Time (CDT) Temp. Windchill Dew Point Humidity Pressure Visibility Wind Dir Wind Speed Gust Speed Precip Events Conditions
12:15 AM 32.0 °F - 26.6 °F 80% 30.19 in 10.0 mi Calm Calm - N/A   Clear
12:35 AM 30.2 °F - 26.6 °F 86% 30.19 in 10.0 mi Calm Calm - N/A   Scattered Clouds
1:15 AM 32.0 °F - 26.6 °F 80% 30.19 in 10.0 mi Calm Calm - N/A   Overcast
1:35 AM 32.0 °F - 26.6 °F 80% 30.18 in 10.0 mi Calm Calm - N/A   Overcast
1:55 AM 32.0 °F - 26.6 °F 80% 30.17 in 10.0 mi Calm Calm - N/A   Overcast
2:15 AM 32.0 °F - 28.4 °F 87% 30.17 in 10.0 mi Calm Calm - N/A   Overcast
2:35 AM 32.0 °F - 28.4 °F 87% 30.16 in 10.0 mi Calm Calm - N/A   Overcast
2:55 AM 32.0 °F 28.7 °F 28.4 °F 87% 30.17 in 10.0 mi North 3.5 mph - N/A   Overcast
3:15 AM 32.0 °F 26.4 °F 28.4 °F 87% 30.16 in 10.0 mi North 5.8 mph - N/A   Overcast
3:35 AM 32.0 °F 27.5 °F 28.4 °F 87% 30.16 in 10.0 mi North 4.6 mph - N/A   Overcast
3:55 AM 32.0 °F 26.4 °F 28.4 °F 87% 30.16 in 10.0 mi North 5.8 mph - N/A   Overcast
4:15 AM 32.0 °F 25.6 °F 28.4 °F 87% 30.15 in 10.0 mi NE 6.9 mph - N/A   Overcast
4:35 AM 32.0 °F 28.7 °F 28.4 °F 87% 30.16 in 10.0 mi NNE 3.5 mph - N/A   Overcast
4:55 AM 32.0 °F 26.4 °F 28.4 °F 87% 30.16 in 10.0 mi NNE 5.8 mph - N/A   Overcast
5:15 AM 32.0 °F 25.6 °F 28.4 °F 87% 30.15 in 10.0 mi North 6.9 mph - N/A   Overcast
5:35 AM 32.0 °F 26.4 °F 28.4 °F 87% 30.15 in 10.0 mi NNE 5.8 mph - N/A   Overcast
5:55 AM 32.0 °F 26.4 °F 28.4 °F 87% 30.15 in 10.0 mi North 5.8 mph - N/A   Overcast
6:15 AM 32.0 °F 27.5 °F 28.4 °F 87% 30.16 in 10.0 mi NNE 4.6 mph - N/A   Overcast
6:35 AM 32.0 °F 27.5 °F 28.4 °F 87% 30.16 in 10.0 mi NNE 4.6 mph - N/A   Overcast
6:55 AM 32.0 °F 25.6 °F 30.2 °F 93% 30.17 in 7.0 mi NNE 6.9 mph - N/A   Overcast
7:15 AM 32.0 °F 25.6 °F 30.2 °F 93% 30.17 in 7.0 mi NNE 6.9 mph - N/A   Overcast
7:35 AM 32.0 °F 27.5 °F 30.2 °F 93% 30.17 in 7.0 mi NNE 4.6 mph - N/A   Overcast
7:55 AM 32.0 °F 26.4 °F 30.2 °F 93% 30.16 in 7.0 mi NNE 5.8 mph - N/A   Overcast
8:15 AM 32.0 °F 27.5 °F 30.2 °F 93% 30.15 in 7.0 mi North 4.6 mph - N/A   Overcast
8:35 AM 32.0 °F 27.5 °F 30.2 °F 93% 30.15 in 7.0 mi North 4.6 mph - N/A   Overcast
8:55 AM 32.0 °F 26.4 °F 30.2 °F 93% 30.17 in 7.0 mi North 5.8 mph - N/A   Overcast
9:15 AM 32.0 °F 25.6 °F 30.2 °F 93% 30.17 in 10.0 mi North 6.9 mph - N/A   Overcast
9:35 AM 33.8 °F 28.6 °F 30.2 °F 87% 30.18 in 10.0 mi NNE 5.8 mph - N/A   Overcast
9:55 AM 33.8 °F 27.7 °F 30.2 °F 87% 30.18 in 10.0 mi North 6.9 mph - N/A   Overcast
10:15 AM 33.8 °F 26.4 °F 30.2 °F 87% 30.18 in 10.0 mi North 9.2 mph - N/A   Overcast
10:35 AM 33.8 °F 26.4 °F 30.2 °F 87% 30.19 in 10.0 mi North 9.2 mph - N/A   Overcast
10:55 AM 33.8 °F 25.8 °F 30.2 °F 87% 30.19 in 10.0 mi NNE 10.4 mph - N/A   Overcast
11:15 AM 33.8 °F 26.4 °F 30.2 °F 87% 30.19 in 10.0 mi North 9.2 mph - N/A   Overcast
11:35 AM 33.8 °F 25.8 °F 30.2 °F 87% 30.19 in 10.0 mi North 10.4 mph - N/A   Overcast
11:55 AM 33.8 °F 26.4 °F 30.2 °F 87% 30.19 in 10.0 mi North 9.2 mph - N/A   Overcast
12:15 PM 33.8 °F 26.4 °F 30.2 °F 87% 30.19 in 10.0 mi North 9.2 mph 16.1 mph N/A   Overcast
12:35 PM 33.8 °F 26.4 °F 30.2 °F 87% 30.18 in 10.0 mi North 9.2 mph - N/A   Overcast
12:55 PM 33.8 °F 25.8 °F 30.2 °F 87% 30.17 in 10.0 mi NNE 10.4 mph - N/A   Overcast
1:15 PM 35.6 °F 28.6 °F 30.2 °F 81% 30.17 in 10.0 mi NNE 9.2 mph - N/A   Overcast
1:35 PM 33.8 °F 26.4 °F 30.2 °F 87% 30.16 in 10.0 mi NNE 9.2 mph - N/A   Overcast
1:55 PM 35.6 °F 28.0 °F 30.2 °F 81% 30.16 in 10.0 mi North 10.4 mph - N/A   Overcast
2:15 PM 33.8 °F 24.8 °F 30.2 °F 87% 30.15 in 10.0 mi North 12.7 mph 17.3 mph N/A   Overcast
2:35 PM 33.8 °F 24.3 °F 30.2 °F 87% 30.15 in 7.0 mi North 13.8 mph - N/A   Overcast
2:55 PM 35.6 °F 27.5 °F 30.2 °F 81% 30.14 in 10.0 mi North 11.5 mph 18.4 mph N/A   Overcast
3:15 PM 33.8 °F 23.5 °F 30.2 °F 87% 30.15 in 10.0 mi North 16.1 mph 21.9 mph N/A   Overcast
3:35 PM 33.8 °F 26.4 °F 30.2 °F 87% 30.16 in 10.0 mi North 9.2 mph 24.2 mph N/A   Overcast
3:55 PM 33.8 °F 25.8 °F 30.2 °F 87% 30.16 in 10.0 mi North 10.4 mph 20.7 mph N/A   Overcast
4:15 PM 33.8 °F 23.5 °F 28.4 °F 81% 30.15 in 10.0 mi North 16.1 mph 19.6 mph N/A   Overcast
4:35 PM 33.8 °F 24.3 °F 28.4 °F 81% 30.16 in 10.0 mi North 13.8 mph 17.3 mph N/A   Overcast
4:55 PM 33.8 °F 24.8 °F 30.2 °F 87% 30.17 in 10.0 mi North 12.7 mph 17.3 mph N/A   Overcast
5:15 PM 33.8 °F 25.3 °F 28.4 °F 81% 30.17 in 10.0 mi NNW 11.5 mph 17.3 mph N/A   Overcast
5:35 PM 33.8 °F 25.3 °F 30.2 °F 87% 30.19 in 10.0 mi North 11.5 mph - N/A   Overcast
5:55 PM 32.0 °F 23.6 °F 30.2 °F 93% 30.19 in 10.0 mi North 10.4 mph 17.3 mph N/A   Overcast
6:15 PM 32.0 °F 24.2 °F 30.2 °F 93% 30.20 in 10.0 mi NNW 9.2 mph 17.3 mph N/A   Overcast
6:35 PM 32.0 °F 23.6 °F 28.4 °F 87% 30.21 in 10.0 mi NNW 10.4 mph - N/A   Overcast
6:55 PM 32.0 °F 24.8 °F 28.4 °F 87% 30.22 in 10.0 mi NNW 8.1 mph 17.3 mph N/A   Overcast
7:15 PM 32.0 °F 24.8 °F 28.4 °F 87% 30.22 in 10.0 mi NNW 8.1 mph 16.1 mph N/A   Mostly Cloudy
7:35 PM 32.0 °F 25.6 °F 28.4 °F 87% 30.22 in 10.0 mi North 6.9 mph - N/A   Scattered Clouds
7:55 PM 32.0 °F 25.6 °F 28.4 °F 87% 30.23 in 10.0 mi North 6.9 mph - N/A   Clear
8:15 PM 32.0 °F 24.8 °F 28.4 °F 87% 30.22 in 10.0 mi North 8.1 mph - N/A   Clear
8:35 PM 32.0 °F 26.4 °F 28.4 °F 87% 30.23 in 10.0 mi North 5.8 mph - N/A   Clear
8:55 PM 32.0 °F 25.6 °F 28.4 °F 87% 30.23 in 10.0 mi North 6.9 mph - N/A   Clear
9:15 PM 32.0 °F 25.6 °F 28.4 °F 87% 30.23 in 10.0 mi North 6.9 mph - N/A   Clear
9:35 PM 32.0 °F 26.4 °F 28.4 °F 87% 30.23 in 10.0 mi NNW 5.8 mph - N/A   Clear
9:55 PM 30.2 °F 25.4 °F 28.4 °F 93% 30.23 in 10.0 mi North 4.6 mph - N/A   Clear
10:15 PM 30.2 °F 26.7 °F 26.6 °F 86% 30.23 in 10.0 mi NNW 3.5 mph - N/A   Clear
10:35 PM 30.2 °F - 26.6 °F 86% 30.23 in 10.0 mi Calm Calm - N/A   Clear
10:55 PM 30.2 °F - 26.6 °F 86% 30.23 in 10.0 mi Calm Calm - N/A   Clear
11:15 PM 30.2 °F - 28.4 °F 93% 30.23 in 10.0 mi Calm Calm - N/A   Clear
11:35 PM 30.2 °F - 26.6 °F 86% 30.23 in 10.0 mi Calm Calm - N/A   Clear
11:55 PM 30.2 °F - 26.6 °F 86% 30.24 in 10.0 mi Calm Calm - N/A   Clear